TimeMST,TemperatureF,Dew PointF,Humidity,Sea Level PressureIn,VisibilityMPH,Wind Direction,Wind SpeedMPH,Gust SpeedMPH,PrecipitationIn,Events,Conditions,WindDirDegrees,DateUTC
12:53 AM,21.9,18.0,85,30.07,10.0,WSW,6.9,-,N/A,,Clear,240,2014-03-03 07:53:00
1:53 AM,25.0,19.9,81,30.01,10.0,West,8.1,-,N/A,,Clear,260,2014-03-03 08:53:00
2:53 AM,28.0,21.0,75,29.96,10.0,WSW,10.4,-,N/A,,Clear,250,2014-03-03 09:53:00
3:53 AM,28.0,21.0,75,29.96,10.0,WSW,9.2,-,N/A,,Clear,250,2014-03-03 10:53:00
4:53 AM,28.9,21.9,75,29.97,10.0,West,8.1,-,N/A,,Clear,260,2014-03-03 11:53:00
5:53 AM,30.0,21.9,72,29.96,10.0,West,12.7,-,N/A,,Clear,260,2014-03-03 12:53:00
6:53 AM,28.0,21.0,75,29.99,10.0,West,8.1,-,N/A,,Clear,270,2014-03-03 13:53:00
7:53 AM,30.9,21.0,67,30.00,10.0,WSW,6.9,-,N/A,,Clear,250,2014-03-03 14:53:00
8:53 AM,39.0,21.0,49,29.98,10.0,West,8.1,-,N/A,,Clear,260,2014-03-03 15:53:00
9:53 AM,45.0,21.9,40,29.95,10.0,WNW,8.1,-,N/A,,Clear,300,2014-03-03 16:53:00
10:53 AM,46.0,21.9,39,29.87,10.0,NW,4.6,-,N/A,,Mostly Cloudy,310,2014-03-03 17:53:00
11:53 AM,46.0,25.0,44,29.87,10.0,NW,15.0,23.0,N/A,,Partly Cloudy,310,2014-03-03 18:53:00
12:53 PM,46.9,23.0,39,29.85,10.0,WNW,11.5,17.3,N/A,,Clear,290,2014-03-03 19:53:00
1:53 PM,46.9,24.1,41,29.84,10.0,NW,6.9,17.3,N/A,,Overcast,320,2014-03-03 20:53:00
2:53 PM,46.9,24.1,41,29.84,10.0,West,10.4,-,N/A,,Mostly Cloudy,270,2014-03-03 21:53:00
3:53 PM,45.0,25.0,46,29.86,10.0,West,10.4,-,N/A,,Partly Cloudy,280,2014-03-03 22:53:00
4:53 PM,44.1,25.0,47,29.86,10.0,West,5.8,-,N/A,,Partly Cloudy,280,2014-03-03 23:53:00
5:53 PM,37.0,24.1,59,29.90,10.0,WSW,4.6,-,N/A,,Clear,240,2014-03-04 00:53:00
6:53 PM,37.0,23.0,57,29.91,10.0,WNW,3.5,-,N/A,,Clear,300,2014-03-04 01:53:00
7:53 PM,34.0,21.9,61,29.91,10.0,WNW,4.6,-,N/A,,Clear,290,2014-03-04 02:53:00
8:53 PM,30.0,21.9,72,29.88,10.0,Calm,Calm,-,N/A,,Clear,0,2014-03-04 03:53:00
9:53 PM,28.0,21.0,75,29.87,10.0,NW,3.5,-,N/A,,Clear,310,2014-03-04 04:53:00
10:53 PM,27.0,21.0,78,29.85,10.0,Calm,Calm,-,N/A,,Clear,0,2014-03-04 05:53:00
11:53 PM,27.0,19.9,75,29.83,10.0,Calm,Calm,-,N/A,,Clear,0,2014-03-04 06:53:00